time_stamp(utc),avg(mph),gust(mph),direction(deg),12m_air_temp(f),sonic_u(cm/s),sonic_v(cm/s),sonic_w(cm/s),pressure,2m_air_temp(f),pyranometer(W/m^2)
"2019-03-27 00:02:06+00",3.5,3.5,,39.8,107,88,0,1024.86,37.5,0
"2019-03-27 00:07:06+00",2.6,3.6,,40.2,93,38,10,1024.9,37.4,0
"2019-03-27 00:12:06+00",2.9,2.9,,40.2,112,-21,-2,1024.92,37.6,0
"2019-03-27 00:17:06+00",3.2,4.2,,40.3,123,-43,-1,1024.89,37.6,0
"2019-03-27 00:22:06+00",3.5,3.5,,40.5,148,6,5,1024.92,37.6,0
"2019-03-27 00:27:06+00",4.4,4.4,,40.3,183,-19,12,1024.9,37.5,0
"2019-03-27 00:32:06+00",4.5,4.5,,40.3,189,-6,12,1025.06,37.2,0
"2019-03-27 00:37:06+00",4.0,4.0,,40.6,163,30,9,1025.11,36.9,0
"2019-03-27 00:42:06+00",3.8,3.8,,40.8,132,79,4,1025.16,36.8,0
"2019-03-27 00:47:06+00",2.9,2.9,,40.9,112,31,4,1025.24,37.1,0
"2019-03-27 00:52:06+00",2.8,2.8,,40.9,90,56,9,1025.23,37.2,0
"2019-03-27 00:57:06+00",3.3,4.3,,40.8,122,54,0,1025.29,37.5,0
"2019-03-27 01:02:06+00",3.1,3.1,,40.9,93,71,2,1025.3,37.7,0
"2019-03-27 01:07:06+00",2.8,3.8,,40.7,-28,107,5,1025.42,37.7,0
"2019-03-27 01:12:06+00",3.1,3.1,,40.8,-58,109,10,1025.39,37.5,0
"2019-03-27 01:17:06+00",4.3,4.3,,40.9,-129,131,18,1025.46,37.2,0
"2019-03-27 01:22:06+00",4.9,4.9,,40.9,-160,140,13,1025.39,37,0
"2019-03-27 01:27:06+00",6.2,6.2,,40.9,-159,211,17,1025.57,36.9,0
"2019-03-27 01:32:06+00",6.7,6.7,,41,-154,240,15,1025.55,36.8,0
"2019-03-27 01:37:06+00",6.9,7.9,,41,-187,235,21,1025.56,36.7,0
"2019-03-27 01:42:06+00",6.9,7.9,,40.9,-185,235,17,1025.65,36.7,0
"2019-03-27 01:47:06+00",7.7,8.7,,40.9,-212,257,22,1025.67,36.8,0
"2019-03-27 01:52:06+00",7.5,7.5,,40.7,-230,233,24,1025.63,37,0
"2019-03-27 01:57:06+00",6.8,6.8,,40.9,-222,195,25,1025.71,37.2,0
"2019-03-27 02:02:06+00",6.5,7.5,,40.7,-199,203,21,1025.77,37.5,0
"2019-03-27 02:07:06+00",5.7,5.7,,40.6,-186,160,13,1025.72,37.6,0
"2019-03-27 02:12:06+00",6.1,6.1,,40.2,-200,168,23,1025.91,37.6,0
"2019-03-27 02:17:06+00",7.1,7.1,,40,-247,190,20,1026.04,37.5,0
"2019-03-27 02:22:06+00",6.4,7.4,,39.5,-234,166,24,1025.96,37.5,0
"2019-03-27 02:27:06+00",8.2,9.2,,39,-313,181,21,1025.88,37.4,0
"2019-03-27 02:32:06+00",8.7,8.7,,38.7,-323,206,25,1025.92,37.2,0
"2019-03-27 02:37:06+00",8.4,8.4,,38.4,-312,204,30,1025.9,37.1,0
"2019-03-27 02:42:06+00",6.7,7.7,,38.3,-232,176,21,1026.01,37.1,0
"2019-03-27 02:47:06+00",8.9,9.9,,38.3,-299,250,27,1026.01,37,0
"2019-03-27 02:52:06+00",6.8,7.8,,38,-231,178,29,1026.06,37,0
"2019-03-27 02:57:06+00",9.7,10.7,,38.2,-337,268,36,1026.16,37,0
"2019-03-27 03:02:06+00",10.8,12.8,,37.9,-390,292,34,1026.12,37,0
"2019-03-27 03:07:06+00",10.5,11.5,,38.1,-350,312,38,1026.07,36.9,0
"2019-03-27 03:12:06+00",8.9,9.9,,38,-278,273,32,1026.15,37.1,0
"2019-03-27 03:17:06+00",10.6,11.6,,38,-328,335,31,1026.16,37,0
"2019-03-27 03:22:06+00",9.3,10.3,,38,-287,287,39,1026.26,37.1,0
"2019-03-27 03:27:06+00",10.2,11.2,,38,-308,323,33,1026.25,37.1,0
"2019-03-27 03:32:06+00",9.5,10.5,,38.3,-236,347,26,1026.25,37.1,0
"2019-03-27 03:37:06+00",10.2,11.2,,38.6,-210,392,24,1026.27,36.9,0
"2019-03-27 03:42:06+00",9.5,10.5,,38.3,-165,378,22,1026.39,36.6,0
"2019-03-27 03:47:06+00",9.8,10.8,,37.7,-106,413,15,1026.36,36.1,0
"2019-03-27 03:52:06+00",10.7,11.7,,37.4,-61,460,12,1026.33,35.6,0
"2019-03-27 03:57:06+00",9.4,10.4,,37.1,-24,413,17,1026.36,35.1,0
"2019-03-27 04:02:06+00",11.9,13.9,,37.3,35,521,16,1026.35,34.4,0
"2019-03-27 04:07:06+00",13.0,14.0,,37.7,54,561,15,1026.46,34.6,0
"2019-03-27 04:12:06+00",14.1,16.1,,37.9,85,599,2,1026.42,34.9,0
"2019-03-27 04:17:06+00",15.0,17.0,,38.2,128,635,-4,1026.48,35.6,0
"2019-03-27 04:22:06+00",14.7,18.7,,38.3,147,595,0,1026.47,36.1,0
"2019-03-27 04:27:06+00",15.4,18.4,,38.4,244,600,11,1026.54,36.5,0
"2019-03-27 04:32:06+00",15.5,18.5,,38.1,273,595,-5,1026.48,36.6,0
"2019-03-27 04:37:06+00",12.3,15.3,,37.8,180,478,18,1026.62,36.4,0
"2019-03-27 04:42:06+00",12.6,14.6,,37.7,173,495,12,1026.67,36.2,0
"2019-03-27 04:47:06+00",13.6,15.6,,37.6,246,521,8,1026.8,36.2,0
"2019-03-27 04:52:06+00",12.9,14.9,,37.4,236,494,6,1026.75,35.9,0
"2019-03-27 04:57:06+00",13.0,16.0,,37.4,248,497,9,1026.81,35.7,0
"2019-03-27 05:02:06+00",12.4,14.4,,37.1,229,475,3,1026.89,35.5,0
"2019-03-27 05:07:06+00",11.9,12.9,,37,224,452,3,1026.92,35.3,0
"2019-03-27 05:12:06+00",11.7,12.7,,37,184,450,1,1027,35.2,0
"2019-03-27 05:17:06+00",11.4,13.4,,36.9,150,443,-2,1026.99,35.2,0
"2019-03-27 05:22:06+00",9.6,11.6,,36.7,109,390,6,1027.03,35,0
"2019-03-27 05:27:06+00",8.3,9.3,,36.4,103,321,-1,1027.12,34.7,0
"2019-03-27 05:32:06+00",10.9,13.9,,36.4,177,417,4,1027.07,34.5,0
"2019-03-27 05:37:06+00",11.1,12.1,,36.3,223,421,5,1027.14,34.4,0
"2019-03-27 05:42:06+00",10.7,11.7,,36.3,206,404,4,1027.2,34.3,0
"2019-03-27 05:47:06+00",11.8,13.8,,36.4,219,447,2,1027.2,34.3,0
"2019-03-27 05:52:06+00",11.0,12.0,,36.5,240,407,9,1027.18,34.4,0
"2019-03-27 05:57:06+00",9.6,10.6,,36.3,228,336,6,1027.26,34.3,0
"2019-03-27 06:02:06+00",10.1,11.1,,36.4,230,366,5,1027.27,34.3,0
"2019-03-27 06:07:06+00",8.5,9.5,,36.2,156,321,6,1027.21,34.2,0
"2019-03-27 06:12:06+00",7.7,8.7,,36,112,299,2,1027.23,34,0
"2019-03-27 06:17:06+00",8.4,9.4,,36.1,101,329,0,1027.29,33.8,0
"2019-03-27 06:22:06+00",10.2,11.2,,36,72,429,9,1027.32,33.7,0
"2019-03-27 06:27:06+00",8.8,9.8,,35.6,46,370,4,1027.37,33.4,0
"2019-03-27 06:32:06+00",9.2,10.2,,35.1,29,396,8,1027.37,33,0
"2019-03-27 06:37:06+00",9.2,10.2,,34.9,60,389,3,1027.4,32.6,0
"2019-03-27 06:42:06+00",9.2,10.2,,34.9,67,385,5,1027.46,32.3,0
"2019-03-27 06:47:06+00",9.7,10.7,,34.9,46,412,9,1027.41,32,0
"2019-03-27 06:52:06+00",10.2,11.2,,35.1,104,416,4,1027.42,32,0
"2019-03-27 06:57:06+00",10.1,12.1,,35.1,95,420,4,1027.55,32,0
"2019-03-27 07:02:06+00",9.9,11.9,,34.9,50,419,14,1027.53,31.9,0
"2019-03-27 07:07:06+00",9.5,10.5,,34.7,35,409,8,1027.59,31.8,0
"2019-03-27 07:12:06+00",9.5,9.5,,34.6,31,402,4,1027.63,31.6,0
"2019-03-27 07:17:06+00",10.2,12.2,,34.3,45,435,9,1027.58,31.5,0
"2019-03-27 07:22:06+00",11.3,13.3,,34.4,31,488,8,1027.59,31.5,0
"2019-03-27 07:27:06+00",10.1,11.1,,34.3,54,421,6,1027.55,31.6,0
"2019-03-27 07:32:06+00",10.8,11.8,,34.3,79,452,7,1027.58,31.6,0
"2019-03-27 07:37:06+00",10.8,12.8,,34.4,122,433,0,1027.56,31.7,0
"2019-03-27 07:42:06+00",10.4,12.4,,34.6,101,424,9,1027.54,32.1,0
"2019-03-27 07:47:06+00",9.7,10.7,,34.4,53,410,4,1027.68,32,0
"2019-03-27 07:52:06+00",9.6,10.6,,34.2,34,412,9,1027.73,31.8,0
"2019-03-27 07:57:06+00",9.4,10.4,,34.1,22,398,11,1027.82,31.5,0
"2019-03-27 08:02:06+00",9.1,10.1,,34,42,388,8,1027.86,31.2,0
"2019-03-27 08:07:06+00",9.5,10.5,,33.8,40,408,6,1027.81,31.1,0
"2019-03-27 08:12:06+00",9.0,10.0,,33.7,62,374,6,1027.85,30.8,0
"2019-03-27 08:17:06+00",8.8,9.8,,33.6,87,359,3,1027.94,30.7,0
"2019-03-27 08:22:06+00",8.4,8.4,,33.9,69,351,9,1027.98,30.7,0
"2019-03-27 08:27:06+00",8.6,9.6,,33.8,118,330,2,1028.08,30.9,0
"2019-03-27 08:32:06+00",8.9,10.9,,33.9,125,344,-1,1028.07,31.1,0
"2019-03-27 08:37:06+00",9.5,10.5,,33.9,140,362,5,1028.07,31.5,0
"2019-03-27 08:42:06+00",8.1,9.1,,33.8,72,336,14,1028.09,31.5,0
"2019-03-27 08:47:06+00",9.1,10.1,,33.7,65,384,6,1028.17,31.3,0
"2019-03-27 08:52:06+00",9.0,10.0,,33.4,34,383,6,1028.12,31,0
"2019-03-27 08:57:06+00",9.4,10.4,,33.1,9,407,16,1028.12,30.8,0
"2019-03-27 09:02:06+00",9.1,11.1,,32.9,-9,394,12,1028.24,30.6,0
"2019-03-27 09:07:06+00",9.7,10.7,,32.8,-2,420,14,1028.33,30.3,0
"2019-03-27 09:12:06+00",8.8,9.8,,32.5,14,379,10,1028.46,30.2,0
"2019-03-27 09:17:06+00",9.7,10.7,,32.5,3,411,13,1028.56,30,0
"2019-03-27 09:22:06+00",9.5,10.5,,32.5,-23,407,15,1028.57,29.9,0
"2019-03-27 09:27:06+00",9.6,11.6,,32.5,-40,412,13,1028.7,29.9,0
"2019-03-27 09:32:06+00",9.3,11.3,,32.4,-31,398,10,1028.71,29.9,0
"2019-03-27 09:37:06+00",9.1,11.1,,32.2,-51,383,15,1028.83,29.8,0
"2019-03-27 09:42:06+00",6.9,7.9,,31.5,-85,285,17,1028.91,29.8,0
"2019-03-27 09:47:06+00",7.7,8.7,,31.3,-69,323,18,1028.96,29.5,0
"2019-03-27 09:52:06+00",8.2,9.2,,31.1,-111,335,19,1029.06,29.4,0
"2019-03-27 09:57:06+00",8.8,9.8,,30.9,-74,374,16,1029.14,29.3,0
"2019-03-27 10:02:06+00",8.7,10.7,,30.8,-43,389,8,1029.22,29.1,0
"2019-03-27 10:07:06+00",7.8,9.8,,30.8,-74,329,22,1029.33,29,0
"2019-03-27 10:12:06+00",8.3,9.3,,30.8,-80,357,20,1029.31,29,0
"2019-03-27 10:17:06+00",7.4,8.4,,30.9,-44,320,16,1029.46,29,0
"2019-03-27 10:22:06+00",10.6,11.6,,31.2,-25,455,17,1029.39,29,0
"2019-03-27 10:27:06+00",11.7,12.7,,31.6,22,501,12,1029.39,29.1,0
"2019-03-27 10:32:06+00",10.6,11.6,,31.5,5,456,16,1029.39,29.2,0
"2019-03-27 10:37:06+00",9.9,11.9,,31.6,64,423,4,1029.48,29.3,0
"2019-03-27 10:42:06+00",10.7,11.7,,31.7,45,460,9,1029.39,29.4,0
"2019-03-27 10:47:06+00",10.1,12.1,,31.9,57,427,8,1029.57,29.5,0
"2019-03-27 10:52:06+00",10.6,12.6,,32.1,77,449,3,1029.52,29.6,0
"2019-03-27 10:57:06+00",10.7,11.7,,32.2,57,450,4,1029.6,29.9,0
"2019-03-27 11:02:06+00",9.6,10.6,,32.2,60,404,7,1029.68,30.1,0
"2019-03-27 11:07:06+00",10.8,12.8,,32.4,68,461,4,1029.69,30.3,0
"2019-03-27 11:12:06+00",8.2,9.2,,32.4,33,350,10,1029.76,30.5,0
"2019-03-27 11:17:06+00",8.3,9.3,,32.4,44,352,9,1029.93,30.6,0
"2019-03-27 11:22:06+00",7.8,9.8,,32.5,43,324,10,1029.93,30.7,17.1
"2019-03-27 11:27:06+00",8.6,9.6,,32.8,63,365,5,1030.09,31,27.7
"2019-03-27 11:32:06+00",8.0,9.0,,33.3,83,315,6,1030.04,31.8,38
"2019-03-27 11:37:06+00",9.9,10.9,,34,120,385,13,1030.14,32.9,49.5
"2019-03-27 11:42:06+00",8.6,12.6,,34.3,80,345,7,1030.27,33.9,59.5
"2019-03-27 11:47:06+00",10.4,12.4,,34.5,172,399,3,1030.18,34.7,62.6
"2019-03-27 11:52:06+00",9.5,12.5,,34.5,190,351,12,1030.31,35.3,82.7
"2019-03-27 11:57:06+00",10.3,12.3,,34.5,147,405,-4,1030.27,35.6,92.5
"2019-03-27 12:02:06+00",10.5,11.5,,34.7,222,393,5,1030.4,36.1,104.4
"2019-03-27 12:07:06+00",9.0,11.0,,35,153,334,0,1030.53,36.4,116
"2019-03-27 12:12:06+00",10.2,11.2,,35.3,207,381,-1,1030.64,36.9,128.3
"2019-03-27 12:17:06+00",8.0,10.0,,35.7,158,279,20,1030.62,37.5,139.6
"2019-03-27 12:22:06+00",11.0,13.0,,36,248,399,-3,1030.69,37.8,152.2
"2019-03-27 12:27:06+00",10.7,12.7,,36,239,389,-9,1030.78,38.1,161.5
"2019-03-27 12:32:06+00",9.4,10.4,,36.4,206,342,2,1030.76,38.6,171.9
"2019-03-27 12:37:06+00",11.3,12.3,,37.2,301,358,1,1030.81,39.2,183.4
"2019-03-27 12:42:06+00",10.7,13.7,,38.1,289,339,4,1030.8,40,194
"2019-03-27 12:47:06+00",12.5,15.5,,39,505,228,32,1030.8,40.8,202.6
"2019-03-27 12:52:06+00",16.0,19.0,,39.3,697,216,42,1030.85,41.4,211.3
"2019-03-27 12:57:06+00",15.7,17.7,,39.4,669,248,31,1030.92,41.8,219.2
"2019-03-27 13:02:06+00",16.3,18.3,,39.4,662,303,17,1031.05,42,226.9
"2019-03-27 13:07:06+00",15.1,19.1,,39.7,643,215,54,1031.18,42.2,234.6
"2019-03-27 13:12:06+00",14.8,16.8,,39.6,605,267,43,1031.3,42.3,241.6
"2019-03-27 13:17:06+00",16.4,19.4,,39.4,704,228,37,1031.34,42.3,249.8
"2019-03-27 13:22:06+00",17.6,19.6,,39.7,692,371,37,1031.48,42.4,257.2
"2019-03-27 13:27:06+00",15.8,16.8,,40.1,619,321,77,1031.58,42.9,261.8
"2019-03-27 13:32:06+00",15.3,18.3,,39.7,584,341,38,1031.7,42.9,269.8
"2019-03-27 13:37:06+00",15.6,18.6,,40.1,648,259,58,1031.71,43.2,277.5
"2019-03-27 13:42:06+00",16.4,18.4,,39.7,631,372,39,1031.84,42.9,286.1
"2019-03-27 13:47:06+00",15.4,17.4,,39.6,675,114,31,1031.89,43.1,292.1
"2019-03-27 13:52:06+00",15.8,17.8,,39.7,629,304,30,1031.97,43.3,301.5
"2019-03-27 13:57:06+00",14.5,18.5,,40,640,137,79,1032.08,43.5,308.4
"2019-03-27 14:02:06+00",15.6,18.6,,39.8,617,322,15,1032.05,43.5,317.9
"2019-03-27 14:07:06+00",14.6,17.6,,40,655,96,69,1032.29,43.7,307.4
"2019-03-27 14:12:06+00",15.0,17.0,,40.2,606,295,34,1032.19,44.1,336.4
"2019-03-27 14:17:06+00",15.3,18.3,,40.2,624,278,34,1032.26,44.3,344.4
"2019-03-27 14:22:06+00",16.7,19.7,,40,738,122,48,1032.31,44.3,352.2
"2019-03-27 14:27:06+00",16.7,18.7,,39.7,748,47,34,1032.39,43.9,362.7
"2019-03-27 14:32:06+00",15.3,16.3,,40.3,658,164,98,1032.55,44.2,371.6
"2019-03-27 14:37:06+00",13.3,15.3,,40.1,558,234,48,1032.54,44.2,379.4
"2019-03-27 14:42:06+00",12.8,15.8,,40,559,94,58,1032.7,44.6,387.5
"2019-03-27 14:47:06+00",13.7,18.7,,39.9,593,152,32,1032.66,44.5,395.3
"2019-03-27 14:52:06+00",13.0,17.0,,40,566,165,44,1032.74,44.4,404.9
"2019-03-27 14:57:06+00",15.3,18.3,,39.9,666,152,89,1032.77,44.5,414.5
"2019-03-27 15:02:06+00",15.2,16.2,,39.8,663,153,18,1032.85,44.3,421.7
"2019-03-27 15:07:06+00",16.6,18.6,,40.1,730,184,43,1032.87,44.6,429.5
"2019-03-27 15:12:06+00",15.2,17.2,,40.1,645,234,53,1032.92,44.5,437
"2019-03-27 15:17:06+00",14.8,17.8,,39.6,646,118,10,1032.91,44.6,445.6
"2019-03-27 15:22:06+00",16.6,18.6,,39.6,726,205,14,1032.91,44.5,452.5
"2019-03-27 15:27:06+00",16.7,19.7,,39.6,750,70,24,1032.98,44.4,459.9
"2019-03-27 15:32:06+00",13.9,15.9,,40,598,173,69,1033,44.2,465.6
"2019-03-27 15:37:06+00",14.8,16.8,,39.6,627,243,34,1033.05,44.7,472.6
"2019-03-27 15:42:06+00",14.8,16.8,,39.3,640,195,38,1032.98,44.6,480.1
"2019-03-27 15:47:06+00",14.6,16.6,,39.5,643,92,59,1033.09,44.7,485.2
"2019-03-27 15:52:06+00",13.9,14.9,,39.4,616,62,13,1032.93,45,492.6
"2019-03-27 15:57:06+00",15.9,17.9,,39.3,684,209,38,1033.03,44.6,497.1
"2019-03-27 16:02:06+00",13.3,16.3,,39.4,561,210,34,1033.02,44.6,502.6
"2019-03-27 16:07:06+00",14.7,16.7,,39.1,641,163,5,1033.16,44.3,507.3
"2019-03-27 16:12:06+00",11.7,16.7,,39.6,481,157,88,1033.08,44.6,512.2
"2019-03-27 16:17:06+00",12.3,14.3,,39.1,530,147,15,1033.17,44.5,495.7
"2019-03-27 16:22:06+00",12.8,13.8,,39.8,580,-56,83,1033.08,44.6,518.5
"2019-03-27 16:27:06+00",13.5,17.5,,39.4,592,124,28,1033.18,44.7,518.2
"2019-03-27 16:32:06+00",12.8,15.8,,39.3,558,78,48,1033.16,44.9,522.7
"2019-03-27 16:37:06+00",10.5,12.5,,39.2,453,-17,31,1033.23,45.3,527.3
"2019-03-27 16:42:06+00",11.3,14.3,,39.1,499,-13,9,1033.03,44.8,422.4
"2019-03-27 16:47:06+00",14.3,16.3,,39.4,626,154,38,1033.22,44.9,532.1
"2019-03-27 16:52:06+00",13.1,15.1,,39.1,575,131,56,1033.12,44.9,513.8
"2019-03-27 16:57:06+00",14.4,15.4,,39.1,641,15,21,1033.19,44.8,419
"2019-03-27 17:02:06+00",12.0,14.0,,39.1,528,65,43,1033.17,44.7,544.5
"2019-03-27 17:07:06+00",13.4,14.4,,39.1,590,4,37,1033.17,44.7,504.1
"2019-03-27 17:12:06+00",12.4,14.4,,39.2,544,54,7,1033.24,44.6,516.6
"2019-03-27 17:17:06+00",14.0,17.0,,39.4,607,162,46,1033.19,44.6,527.9
"2019-03-27 17:22:06+00",12.7,14.7,,39.3,565,-5,29,1033.2,44.6,489.7
"2019-03-27 17:27:06+00",12.7,14.7,,39.2,545,139,15,1033.11,44.6,528.9
"2019-03-27 17:32:06+00",11.2,15.2,,39.2,492,83,8,1033.05,44.3,522.8
"2019-03-27 17:37:06+00",13.0,15.0,,39.1,569,-25,20,1033.03,44.5,519.5
"2019-03-27 17:42:06+00",13.7,15.7,,39.7,607,62,80,1032.85,45.1,511.3
"2019-03-27 17:47:06+00",14.1,17.1,,39.6,629,45,39,1032.87,45,493.5
"2019-03-27 17:52:06+00",11.9,12.9,,39,525,82,17,1032.88,44.8,500.8
"2019-03-27 17:57:06+00",12.7,13.7,,39.5,565,0,63,1032.84,44.4,485.2
"2019-03-27 18:02:06+00",13.9,15.9,,39.3,611,111,35,1032.89,44.1,428
"2019-03-27 18:07:06+00",12.6,13.6,,39.8,555,84,77,1032.82,43.8,448.1
"2019-03-27 18:12:06+00",12.0,13.0,,39.4,533,-17,29,1032.85,43.9,439.5
"2019-03-27 18:17:06+00",14.2,17.2,,39.6,609,170,65,1032.7,43.7,476.9
"2019-03-27 18:22:06+00",11.4,13.4,,39.3,504,-47,9,1032.76,43.6,473.5
"2019-03-27 18:27:06+00",11.3,12.3,,39.3,491,99,19,1032.69,44.1,442.7
"2019-03-27 18:32:06+00",13.1,15.1,,39.1,559,172,27,1032.68,44.4,395.4
"2019-03-27 18:37:06+00",12.9,15.9,,39.6,566,-59,75,1032.59,43.9,442.3
"2019-03-27 18:42:06+00",14.0,15.0,,39.2,618,13,10,1032.64,43.6,453
"2019-03-27 18:47:06+00",12.6,13.6,,39.5,544,-90,23,1032.55,43.6,440.5
"2019-03-27 18:52:06+00",14.3,16.3,,39.7,636,-45,14,1032.79,43.4,423.9
"2019-03-27 18:57:06+00",9.2,11.2,,39.7,398,-59,48,1032.73,44.1,425.6
"2019-03-27 19:02:06+00",14.2,16.2,,39.3,634,-40,6,1032.74,44,321.2
"2019-03-27 19:07:06+00",11.8,14.8,,39.2,509,-140,11,1032.54,43.2,337.4
"2019-03-27 19:12:06+00",13.8,17.8,,39.3,617,17,28,1032.64,43.4,372.1
"2019-03-27 19:17:06+00",12.9,14.9,,39.7,536,-187,2,1032.58,43.4,405.4
"2019-03-27 19:22:06+00",14.7,16.7,,39.6,657,10,15,1032.63,43.9,361.1
"2019-03-27 19:27:06+00",14.3,17.3,,39.9,614,-156,51,1032.52,43.5,356.3
"2019-03-27 19:32:06+00",12.8,15.8,,39.6,568,67,52,1032.53,43.7,338.2
"2019-03-27 19:37:06+00",14.4,16.4,,39.7,626,-152,14,1032.47,43.6,346
"2019-03-27 19:42:06+00",11.0,13.0,,39.6,441,-213,59,1032.59,43,341.9
"2019-03-27 19:47:06+00",13.3,15.3,,39.5,567,-171,-10,1032.66,42.9,328.3
"2019-03-27 19:52:06+00",12.8,14.8,,39.4,562,81,23,1032.49,43.1,301.3
"2019-03-27 19:57:06+00",13.7,15.7,,39.4,608,-77,3,1032.56,43.2,324.9
"2019-03-27 20:02:06+00",11.6,13.6,,39.6,491,-143,31,1032.53,43.4,292.9
"2019-03-27 20:07:06+00",15.9,17.9,,39.7,709,-60,15,1032.5,43.3,300.8
"2019-03-27 20:12:06+00",14.8,15.8,,39.6,660,-23,54,1032.45,43,207.3
"2019-03-27 20:17:06+00",15.3,16.3,,39.6,678,-51,39,1032.4,42.5,257.8
"2019-03-27 20:22:06+00",15.8,16.8,,39.7,697,-72,49,1032.46,42.6,261.2
"2019-03-27 20:27:06+00",16.3,17.3,,39.7,729,1,31,1032.32,42.7,241.2
"2019-03-27 20:32:06+00",14.0,16.0,,39.2,608,-97,20,1032.39,42.2,258.4
"2019-03-27 20:37:06+00",13.5,15.5,,39.7,589,-48,55,1032.27,42.5,203.6
"2019-03-27 20:42:06+00",15.0,16.0,,39.3,657,-146,-9,1032.31,42,188.7
"2019-03-27 20:47:06+00",13.6,15.6,,39.6,592,-95,65,1032.15,42.1,238.6
"2019-03-27 20:52:06+00",13.8,15.8,,39.6,592,-172,11,1032.11,42.1,228.6
"2019-03-27 20:57:06+00",16.7,17.7,,39.6,746,-75,11,1031.85,42.1,198.1
"2019-03-27 21:02:06+00",14.1,16.1,,39.6,603,-190,15,1031.97,41.9,204.1
"2019-03-27 21:07:06+00",14.9,16.9,,39.2,627,-203,-17,1031.95,41.5,175.5
"2019-03-27 21:12:06+00",14.8,16.8,,39.6,660,14,54,1031.88,41.7,184
"2019-03-27 21:17:06+00",13.4,15.4,,39.3,577,-144,7,1032.05,41.4,185.5
"2019-03-27 21:22:06+00",11.9,14.9,,39.6,519,-106,42,1031.97,41.5,159.1
"2019-03-27 21:27:06+00",13.8,15.8,,39.4,588,-195,-3,1031.95,41.4,129
"2019-03-27 21:32:06+00",13.2,15.2,,39.2,575,-106,0,1031.91,41.3,156.3
"2019-03-27 21:37:06+00",12.4,14.4,,39.2,519,-153,5,1031.85,41,111.6
"2019-03-27 21:42:06+00",12.3,13.3,,39.6,541,3,44,1031.91,41.2,110.4
"2019-03-27 21:47:06+00",11.2,12.2,,39.5,491,-54,29,1031.93,41.2,109.3
"2019-03-27 21:52:06+00",13.0,14.0,,39.3,576,-101,-10,1031.85,40.9,114.7
"2019-03-27 21:57:06+00",12.9,14.9,,39.3,555,-164,-15,1031.9,40.8,108.7
"2019-03-27 22:02:06+00",12.8,14.8,,39.3,519,-220,-6,1031.74,40.8,98.2
"2019-03-27 22:07:06+00",12.0,13.0,,39.5,461,-269,29,1031.8,40.8,87.2
"2019-03-27 22:12:06+00",14.0,16.0,,39.2,577,-247,-1,1031.74,40.7,51.7
"2019-03-27 22:17:06+00",12.7,14.7,,39.3,511,-217,23,1031.81,40.4,26.3
"2019-03-27 22:22:06+00",11.9,14.9,,39.1,530,-130,0,1031.89,40,19.9
"2019-03-27 22:27:06+00",10.8,11.8,,39.1,425,-241,-29,1031.94,39.8,40
"2019-03-27 22:32:06+00",11.9,13.9,,39.2,482,-231,-27,1031.75,39.9,26.2
"2019-03-27 22:37:06+00",11.5,13.5,,39.1,471,-179,-12,1031.79,39.8,23.6
"2019-03-27 22:42:06+00",9.3,10.3,,39,393,-126,-29,1031.82,39.7,13.9
"2019-03-27 22:47:06+00",12.3,14.3,,39,508,-195,-38,1031.83,39.6,6.7
"2019-03-27 22:52:06+00",12.5,13.5,,38.9,484,-272,-34,1031.73,39.4,0.8
"2019-03-27 22:57:06+00",13.4,15.4,,38.8,544,-247,-52,1031.71,39.2,0
"2019-03-27 23:02:06+00",11.4,14.4,,38.7,469,-201,-30,1031.89,39,0
"2019-03-27 23:07:06+00",13.1,15.1,,38.7,502,-290,-46,1031.92,38.8,0
"2019-03-27 23:12:06+00",11.7,12.7,,38.6,439,-268,-63,1031.81,38.6,0
"2019-03-27 23:17:06+00",11.6,13.6,,38.5,456,-242,-36,1031.88,38.4,0
"2019-03-27 23:22:06+00",11.9,13.9,,38.6,444,-281,-57,1031.73,38.3,0
"2019-03-27 23:27:06+00",12.2,15.2,,38.5,433,-324,-53,1031.75,38.2,0
"2019-03-27 23:32:06+00",11.9,13.9,,38.5,429,-296,-34,1031.52,38.2,0
"2019-03-27 23:37:06+00",13.3,15.3,,38.4,458,-372,-66,1031.46,38,0
"2019-03-27 23:42:06+00",10.4,13.4,,38.3,357,-273,-49,1031.53,38,0
"2019-03-27 23:47:06+00",11.9,13.9,,38.4,383,-345,-76,1031.44,38,0
"2019-03-27 23:52:06+00",13.1,14.1,,38.4,389,-415,-79,1031.31,37.9,0
"2019-03-27 23:57:06+00",13.3,15.3,,38.3,427,-381,-74,1031.39,37.9,0
